Time,TemperatureF,DewpointF,PressureIn,WindDirection,WindDirectionDegrees,WindSpeedMPH,WindSpeedGustMPH,Humidity,HourlyPrecipIn,Conditions,Clouds,dailyrainin,SoftwareType,DateUTC
2013-10-02 00:00:00,64.5,61.5,29.92,West,271,0.0,1.0,90,0.00,,,0.00,Wunderground v.1.15,2013-10-02 05:00:00,
2013-10-02 00:10:00,64.2,61.5,29.92,West,271,0.0,0.0,91,0.00,,,0.00,Wunderground v.1.15,2013-10-02 05:10:00,
2013-10-02 00:15:00,64.0,61.3,29.92,West,271,0.0,0.0,91,0.00,,,0.00,Wunderground v.1.15,2013-10-02 05:15:00,
2013-10-02 00:20:00,63.8,61.4,29.92,West,271,0.0,0.0,92,0.00,,,0.00,Wunderground v.1.15,2013-10-02 05:20:00,
2013-10-02 00:25:00,63.7,61.3,29.92,West,271,0.0,0.0,92,0.00,,,0.00,Wunderground v.1.15,2013-10-02 05:25:00,
2013-10-02 00:30:00,63.5,61.1,29.92,West,271,0.0,0.0,92,0.00,,,0.00,Wunderground v.1.15,2013-10-02 05:30:00,
2013-10-02 00:35:00,63.4,61.0,29.92,West,271,0.0,0.0,92,0.00,,,0.00,Wunderground v.1.15,2013-10-02 05:35:00,
2013-10-02 00:40:00,63.2,61.1,29.93,West,271,0.0,0.0,93,0.00,,,0.00,Wunderground v.1.15,2013-10-02 05:40:00,
2013-10-02 00:45:00,63.1,61.0,29.93,West,271,0.0,0.0,93,0.00,,,0.00,Wunderground v.1.15,2013-10-02 05:45:00,
2013-10-02 00:50:00,63.0,60.9,29.93,West,271,0.0,0.0,93,0.00,,,0.00,Wunderground v.1.15,2013-10-02 05:50:00,
2013-10-02 00:55:00,62.8,60.7,29.93,West,271,0.0,0.0,93,0.00,,,0.00,Wunderground v.1.15,2013-10-02 05:55:00,
2013-10-02 01:00:00,62.7,60.6,29.93,West,271,0.0,0.0,93,0.00,,,0.00,Wunderground v.1.15,2013-10-02 06:00:00,
2013-10-02 01:10:00,62.4,60.3,29.94,West,271,0.0,0.0,93,0.00,,,0.00,Wunderground v.1.15,2013-10-02 06:10:00,
2013-10-02 01:15:00,62.2,60.2,29.94,West,271,0.0,0.0,93,0.00,,,0.00,Wunderground v.1.15,2013-10-02 06:15:00,
2013-10-02 01:20:00,62.0,60.0,29.94,West,271,0.0,0.0,93,0.00,,,0.00,Wunderground v.1.15,2013-10-02 06:20:00,
2013-10-02 01:25:00,61.8,59.8,29.94,West,271,0.0,0.0,93,0.00,,,0.00,Wunderground v.1.15,2013-10-02 06:25:00,
2013-10-02 01:30:00,61.7,59.7,29.94,West,271,0.0,0.0,93,0.00,,,0.00,Wunderground v.1.15,2013-10-02 06:30:00,
2013-10-02 01:35:00,61.5,59.5,29.94,West,271,0.0,0.0,93,0.00,,,0.00,Wunderground v.1.15,2013-10-02 06:35:00,
2013-10-02 01:40:00,61.3,59.3,29.95,West,271,0.0,0.0,93,0.00,,,0.00,Wunderground v.1.15,2013-10-02 06:40:00,
2013-10-02 01:45:00,61.1,59.1,29.95,West,271,0.0,0.0,93,0.00,,,0.00,Wunderground v.1.15,2013-10-02 06:45:00,
2013-10-02 01:50:00,60.9,59.2,29.95,West,271,0.0,0.0,94,0.00,,,0.00,Wunderground v.1.15,2013-10-02 06:50:00,
2013-10-02 01:55:00,60.8,59.1,29.95,West,271,0.0,0.0,94,0.00,,,0.00,Wunderground v.1.15,2013-10-02 06:55:00,
2013-10-02 02:00:00,60.5,58.8,29.95,West,271,0.0,0.0,94,0.00,,,0.00,Wunderground v.1.15,2013-10-02 07:00:00,
2013-10-02 02:10:00,60.3,58.6,29.95,West,271,0.0,0.0,94,0.00,,,0.00,Wunderground v.1.15,2013-10-02 07:10:00,
2013-10-02 02:15:00,60.0,58.3,29.95,West,271,0.0,0.0,94,0.00,,,0.00,Wunderground v.1.15,2013-10-02 07:15:00,
2013-10-02 02:20:00,59.8,58.1,29.95,West,271,0.0,0.0,94,0.00,,,0.00,Wunderground v.1.15,2013-10-02 07:20:00,
2013-10-02 02:25:00,59.6,57.9,29.95,West,271,0.0,0.0,94,0.00,,,0.00,Wunderground v.1.15,2013-10-02 07:25:00,
2013-10-02 02:30:00,59.3,57.6,29.95,West,271,0.0,0.0,94,0.00,,,0.00,Wunderground v.1.15,2013-10-02 07:30:00,
2013-10-02 02:35:00,59.0,57.3,29.95,West,271,0.0,0.0,94,0.00,,,0.00,Wunderground v.1.15,2013-10-02 07:35:00,
2013-10-02 02:40:00,58.8,57.1,29.96,West,271,0.0,0.0,94,0.00,,,0.00,Wunderground v.1.15,2013-10-02 07:40:00,
2013-10-02 02:45:00,58.6,56.9,29.96,West,271,0.0,0.0,94,0.00,,,0.00,Wunderground v.1.15,2013-10-02 07:45:00,
2013-10-02 02:50:00,58.5,57.1,29.96,West,271,0.0,0.0,95,0.00,,,0.00,Wunderground v.1.15,2013-10-02 07:50:00,
2013-10-02 02:55:00,58.3,56.9,29.96,West,271,0.0,0.0,95,0.00,,,0.00,Wunderground v.1.15,2013-10-02 07:55:00,
2013-10-02 03:00:00,58.2,56.8,29.96,West,271,0.0,0.0,95,0.00,,,0.00,Wunderground v.1.15,2013-10-02 08:00:00,
2013-10-02 03:05:00,58.1,56.7,29.96,West,271,0.0,0.0,95,0.00,,,0.00,Wunderground v.1.15,2013-10-02 08:05:00,
2013-10-02 03:10:00,58.0,56.6,29.96,West,271,0.0,0.0,95,0.00,,,0.00,Wunderground v.1.15,2013-10-02 08:10:00,
2013-10-02 03:15:00,57.8,56.4,29.97,West,271,0.0,0.0,95,0.00,,,0.00,Wunderground v.1.15,2013-10-02 08:15:00,
2013-10-02 03:20:00,57.6,56.2,29.97,West,271,0.0,0.0,95,0.00,,,0.00,Wunderground v.1.15,2013-10-02 08:20:00,
2013-10-02 03:25:00,57.5,56.1,29.97,West,271,0.0,0.0,95,0.00,,,0.00,Wunderground v.1.15,2013-10-02 08:25:00,
2013-10-02 03:30:00,57.3,55.9,29.97,West,271,0.0,0.0,95,0.00,,,0.00,Wunderground v.1.15,2013-10-02 08:30:00,
2013-10-02 03:35:00,57.1,55.7,29.97,West,271,0.0,0.0,95,0.00,,,0.00,Wunderground v.1.15,2013-10-02 08:35:00,
2013-10-02 03:40:00,57.0,55.6,29.97,West,271,0.0,0.0,95,0.00,,,0.00,Wunderground v.1.15,2013-10-02 08:40:00,
2013-10-02 03:45:00,56.8,55.4,29.97,West,271,0.0,0.0,95,0.00,,,0.00,Wunderground v.1.15,2013-10-02 08:45:00,
2013-10-02 03:50:00,56.7,55.3,29.98,West,271,0.0,0.0,95,0.00,,,0.00,Wunderground v.1.15,2013-10-02 08:50:00,
2013-10-02 04:00:00,56.4,55.3,29.98,West,271,0.0,0.0,96,0.00,,,0.00,Wunderground v.1.15,2013-10-02 09:00:00,
2013-10-02 04:05:00,56.4,55.3,29.98,West,271,0.0,0.0,96,0.00,,,0.00,Wunderground v.1.15,2013-10-02 09:05:00,
2013-10-02 04:10:00,56.3,55.2,29.98,West,271,0.0,0.0,96,0.00,,,0.00,Wunderground v.1.15,2013-10-02 09:10:00,
2013-10-02 04:15:00,56.2,55.1,29.99,West,271,0.0,0.0,96,0.00,,,0.00,Wunderground v.1.15,2013-10-02 09:15:00,
2013-10-02 04:20:00,56.2,55.4,29.99,West,271,0.0,0.0,97,0.00,,,0.00,Wunderground v.1.15,2013-10-02 09:20:00,
2013-10-02 04:25:00,56.1,55.0,29.99,West,271,0.0,0.0,96,0.00,,,0.00,Wunderground v.1.15,2013-10-02 09:25:00,
2013-10-02 04:30:00,56.0,54.9,29.99,West,271,0.0,0.0,96,0.00,,,0.00,Wunderground v.1.15,2013-10-02 09:30:00,
2013-10-02 04:35:00,55.9,54.8,29.99,West,271,0.0,0.0,96,0.00,,,0.00,Wunderground v.1.15,2013-10-02 09:35:00,
2013-10-02 04:40:00,55.7,54.6,29.99,West,271,0.0,0.0,96,0.00,,,0.00,Wunderground v.1.15,2013-10-02 09:40:00,
2013-10-02 04:45:00,55.5,54.4,29.99,West,271,0.0,0.0,96,0.00,,,0.00,Wunderground v.1.15,2013-10-02 09:45:00,
2013-10-02 04:50:00,55.4,54.3,29.99,West,271,0.0,0.0,96,0.00,,,0.00,Wunderground v.1.15,2013-10-02 09:50:00,
2013-10-02 04:55:00,55.4,54.3,29.99,West,271,0.0,0.0,96,0.00,,,0.00,Wunderground v.1.15,2013-10-02 09:55:00,
2013-10-02 05:00:00,55.4,54.6,29.99,West,271,0.0,0.0,97,0.00,,,0.00,Wunderground v.1.15,2013-10-02 10:00:00,
2013-10-02 05:05:00,55.3,54.5,30.00,West,271,0.0,0.0,97,0.00,,,0.00,Wunderground v.1.15,2013-10-02 10:05:00,
2013-10-02 05:10:00,55.2,54.1,30.00,West,271,0.0,0.0,96,0.00,,,0.00,Wunderground v.1.15,2013-10-02 10:10:00,
2013-10-02 05:15:00,55.0,53.9,30.00,West,271,0.0,0.0,96,0.00,,,0.00,Wunderground v.1.15,2013-10-02 10:15:00,
2013-10-02 05:20:00,54.9,53.8,30.00,West,271,0.0,0.0,96,0.00,,,0.00,Wunderground v.1.15,2013-10-02 10:20:00,
2013-10-02 05:25:00,54.8,53.7,30.00,West,271,0.0,0.0,96,0.00,,,0.00,Wunderground v.1.15,2013-10-02 10:25:00,
2013-10-02 05:35:00,54.5,53.4,30.00,West,271,0.0,0.0,96,0.00,,,0.00,Wunderground v.1.15,2013-10-02 10:35:00,
2013-10-02 05:40:00,54.5,53.7,30.00,West,271,0.0,0.0,97,0.00,,,0.00,Wunderground v.1.15,2013-10-02 10:40:00,
2013-10-02 05:45:00,54.5,53.7,30.00,West,271,0.0,0.0,97,0.00,,,0.00,Wunderground v.1.15,2013-10-02 10:45:00,
2013-10-02 05:50:00,54.5,53.7,30.01,West,271,0.0,0.0,97,0.00,,,0.00,Wunderground v.1.15,2013-10-02 10:50:00,
2013-10-02 05:55:00,54.4,53.6,30.01,West,271,0.0,0.0,97,0.00,,,0.00,Wunderground v.1.15,2013-10-02 10:55:00,
2013-10-02 06:00:00,54.4,53.6,30.01,West,271,0.0,0.0,97,0.00,,,0.00,Wunderground v.1.15,2013-10-02 11:00:00,
2013-10-02 06:05:00,54.3,53.5,30.01,West,271,0.0,0.0,97,0.00,,,0.00,Wunderground v.1.15,2013-10-02 11:05:00,
2013-10-02 06:10:00,54.3,53.5,30.01,West,271,0.0,0.0,97,0.00,,,0.00,Wunderground v.1.15,2013-10-02 11:10:00,
2013-10-02 06:15:00,54.3,53.5,30.02,West,271,0.0,0.0,97,0.00,,,0.00,Wunderground v.1.15,2013-10-02 11:15:00,
2013-10-02 06:20:00,54.2,53.4,30.02,West,271,0.0,0.0,97,0.00,,,0.00,Wunderground v.1.15,2013-10-02 11:20:00,
2013-10-02 06:25:00,54.2,53.4,30.02,West,271,0.0,0.0,97,0.00,,,0.00,Wunderground v.1.15,2013-10-02 11:25:00,
2013-10-02 06:30:00,54.1,53.3,30.02,West,271,0.0,0.0,97,0.00,,,0.00,Wunderground v.1.15,2013-10-02 11:30:00,
2013-10-02 06:35:00,53.9,53.1,30.02,West,271,0.0,0.0,97,0.00,,,0.00,Wunderground v.1.15,2013-10-02 11:35:00,
2013-10-02 06:40:00,53.8,53.0,30.02,West,271,0.0,0.0,97,0.00,,,0.00,Wunderground v.1.15,2013-10-02 11:40:00,
2013-10-02 06:45:00,53.7,52.9,30.02,West,271,0.0,0.0,97,0.00,,,0.00,Wunderground v.1.15,2013-10-02 11:45:00,
2013-10-02 06:50:00,53.6,52.8,30.02,West,271,0.0,0.0,97,0.00,,,0.00,Wunderground v.1.15,2013-10-02 11:50:00,
2013-10-02 06:55:00,53.5,52.7,30.02,West,271,0.0,0.0,97,0.00,,,0.00,Wunderground v.1.15,2013-10-02 11:55:00,
2013-10-02 07:00:00,53.4,52.6,30.03,West,271,0.0,0.0,97,0.00,,,0.00,Wunderground v.1.15,2013-10-02 12:00:00,
2013-10-02 07:05:00,53.3,52.5,30.03,West,271,0.0,0.0,97,0.00,,,0.00,Wunderground v.1.15,2013-10-02 12:05:00,
2013-10-02 07:10:00,53.3,52.5,30.03,West,271,0.0,0.0,97,0.00,,,0.00,Wunderground v.1.15,2013-10-02 12:10:00,
2013-10-02 07:15:00,53.3,52.5,30.03,West,271,0.0,0.0,97,0.00,,,0.00,Wunderground v.1.15,2013-10-02 12:15:00,
2013-10-02 07:20:00,53.4,52.8,30.03,West,271,0.0,0.0,98,0.00,,,0.00,Wunderground v.1.15,2013-10-02 12:20:00,
2013-10-02 07:25:00,53.5,52.9,30.03,West,271,0.0,0.0,98,0.00,,,0.00,Wunderground v.1.15,2013-10-02 12:25:00,
2013-10-02 07:30:00,53.5,52.9,30.03,West,271,0.0,0.0,98,0.00,,,0.00,Wunderground v.1.15,2013-10-02 12:30:00,
2013-10-02 07:35:00,53.6,53.0,30.03,West,271,0.0,0.0,98,0.00,,,0.00,Wunderground v.1.15,2013-10-02 12:35:00,
2013-10-02 07:45:00,53.6,53.0,30.03,West,271,0.0,0.0,98,0.00,,,0.00,Wunderground v.1.15,2013-10-02 12:45:00,
2013-10-02 07:50:00,53.7,53.1,30.03,West,271,0.0,1.0,98,0.00,,,0.00,Wunderground v.1.15,2013-10-02 12:50:00,
2013-10-02 07:55:00,54.1,53.5,30.04,WNW,285,1.0,1.0,98,0.00,,,0.00,Wunderground v.1.15,2013-10-02 12:55:00,
2013-10-02 08:05:00,55.1,54.5,30.04,North,360,2.0,2.0,98,0.00,,,0.00,Wunderground v.1.15,2013-10-02 13:05:00,
2013-10-02 08:10:00,55.5,54.9,30.04,NNE,30,1.0,2.0,98,0.00,,,0.00,Wunderground v.1.15,2013-10-02 13:10:00,
2013-10-02 08:15:00,55.9,54.8,30.04,North,360,1.0,3.0,96,0.00,,,0.00,Wunderground v.1.15,2013-10-02 13:15:00,
2013-10-02 08:20:00,56.3,54.9,30.04,North,5,2.0,2.0,95,0.00,,,0.00,Wunderground v.1.15,2013-10-02 13:20:00,
2013-10-02 08:25:00,56.8,55.1,30.04,North,355,1.0,2.0,94,0.00,,,0.00,Wunderground v.1.15,2013-10-02 13:25:00,
2013-10-02 08:30:00,57.2,55.2,30.05,North,355,1.0,1.0,93,0.00,,,0.00,Wunderground v.1.15,2013-10-02 13:30:00,
2013-10-02 08:35:00,57.7,55.4,30.05,North,355,1.0,1.0,92,0.00,,,0.00,Wunderground v.1.15,2013-10-02 13:35:00,
2013-10-02 08:40:00,58.3,55.7,30.05,North,5,1.0,1.0,91,0.00,,,0.00,Wunderground v.1.15,2013-10-02 13:40:00,
2013-10-02 08:45:00,58.9,55.7,30.05,North,355,1.0,1.0,89,0.00,,,0.00,Wunderground v.1.15,2013-10-02 13:45:00,
2013-10-02 08:50:00,59.4,55.2,30.05,ENE,72,1.0,1.0,86,0.00,,,0.00,Wunderground v.1.15,2013-10-02 13:50:00,
2013-10-02 08:55:00,60.0,54.8,30.05,ENE,68,1.0,1.0,83,0.00,,,0.00,Wunderground v.1.15,2013-10-02 13:55:00,
2013-10-02 09:00:00,60.8,54.9,30.05,NE,42,1.0,1.0,81,0.00,,,0.00,Wunderground v.1.15,2013-10-02 14:00:00,
2013-10-02 09:10:00,62.1,54.1,30.05,ENE,63,2.0,2.0,75,0.00,,,0.00,Wunderground v.1.15,2013-10-02 14:10:00,
2013-10-02 09:15:00,63.0,53.4,30.05,East,83,2.0,3.0,71,0.00,,,0.00,Wunderground v.1.15,2013-10-02 14:15:00,
2013-10-02 09:20:00,64.0,53.6,30.05,ENE,59,2.0,2.0,69,0.00,,,0.00,Wunderground v.1.15,2013-10-02 14:20:00,
2013-10-02 09:25:00,64.9,52.8,30.05,East,86,2.0,2.0,65,0.00,,,0.00,Wunderground v.1.15,2013-10-02 14:25:00,
2013-10-02 09:30:00,65.9,52.1,30.05,East,79,2.0,2.0,61,0.00,,,0.00,Wunderground v.1.15,2013-10-02 14:30:00,
2013-10-02 09:35:00,66.8,49.6,30.05,NE,47,2.0,2.0,54,0.00,,,0.00,Wunderground v.1.15,2013-10-02 14:35:00,
2013-10-02 09:40:00,67.7,48.4,30.06,NE,53,3.0,7.0,50,0.00,,,0.00,Wunderground v.1.15,2013-10-02 14:40:00,
2013-10-02 09:45:00,68.4,48.5,30.06,ENE,61,3.0,7.0,49,0.00,,,0.00,Wunderground v.1.15,2013-10-02 14:45:00,
2013-10-02 09:50:00,69.0,49.0,30.06,East,96,4.0,7.0,49,0.00,,,0.00,Wunderground v.1.15,2013-10-02 14:50:00,
2013-10-02 09:55:00,69.6,48.5,30.06,ENE,71,4.0,7.0,47,0.00,,,0.00,Wunderground v.1.15,2013-10-02 14:55:00,
2013-10-02 10:00:00,70.5,49.9,30.06,ENE,58,3.0,3.0,48,0.00,,,0.00,Wunderground v.1.15,2013-10-02 15:00:00,
2013-10-02 10:05:00,71.0,48.6,30.06,East,81,3.0,3.0,45,0.00,,,0.00,Wunderground v.1.15,2013-10-02 15:05:00,
2013-10-02 10:10:00,71.6,48.5,30.06,East,87,3.0,3.0,44,0.00,,,0.00,Wunderground v.1.15,2013-10-02 15:10:00,
2013-10-02 10:15:00,72.3,47.3,30.06,ENE,74,3.0,3.0,41,0.00,,,0.00,Wunderground v.1.15,2013-10-02 15:15:00,
2013-10-02 10:20:00,72.6,46.9,30.06,NNE,13,3.0,3.0,40,0.00,,,0.00,Wunderground v.1.15,2013-10-02 15:20:00,
2013-10-02 10:25:00,73.0,47.2,30.06,ENE,76,3.0,3.0,40,0.00,,,0.00,Wunderground v.1.15,2013-10-02 15:25:00,
2013-10-02 10:30:00,73.5,44.9,30.06,East,94,3.0,6.0,36,0.00,,,0.00,Wunderground v.1.15,2013-10-02 15:30:00,
2013-10-02 10:35:00,73.3,44.7,30.06,NE,39,4.0,6.0,36,0.00,,,0.00,Wunderground v.1.15,2013-10-02 15:35:00,
2013-10-02 10:40:00,73.5,44.9,30.06,ESE,110,5.0,8.0,36,0.00,,,0.00,Wunderground v.1.15,2013-10-02 15:40:00,
2013-10-02 10:45:00,73.5,44.9,30.06,ENE,74,4.0,8.0,36,0.00,,,0.00,Wunderground v.1.15,2013-10-02 15:45:00,
2013-10-02 10:50:00,74.0,45.3,30.06,East,82,4.0,4.0,36,0.00,,,0.00,Wunderground v.1.15,2013-10-02 15:50:00,
2013-10-02 10:55:00,74.4,45.7,30.05,ESE,106,4.0,7.0,36,0.00,,,0.00,Wunderground v.1.15,2013-10-02 15:55:00,
2013-10-02 11:00:00,74.6,45.9,30.05,East,80,3.0,3.0,36,0.00,,,0.00,Wunderground v.1.15,2013-10-02 16:00:00,
2013-10-02 11:05:00,74.8,46.1,30.05,NE,49,3.0,3.0,36,0.00,,,0.00,Wunderground v.1.15,2013-10-02 16:05:00,
2013-10-02 11:10:00,75.0,45.5,30.05,SE,146,3.0,3.0,35,0.00,,,0.00,Wunderground v.1.15,2013-10-02 16:10:00,
2013-10-02 11:15:00,74.8,42.1,30.05,ENE,67,4.0,9.0,31,0.00,,,0.00,Wunderground v.1.15,2013-10-02 16:15:00,
2013-10-02 11:20:00,75.0,43.1,30.05,ESE,112,4.0,5.0,32,0.00,,,0.00,Wunderground v.1.15,2013-10-02 16:20:00,
2013-10-02 11:25:00,75.3,43.4,30.05,ENE,78,4.0,5.0,32,0.00,,,0.00,Wunderground v.1.15,2013-10-02 16:25:00,
2013-10-02 11:30:00,75.7,43.7,30.05,NE,40,4.0,5.0,32,0.00,,,0.00,Wunderground v.1.15,2013-10-02 16:30:00,
2013-10-02 11:35:00,75.9,43.1,30.05,East,90,4.0,5.0,31,0.00,,,0.00,Wunderground v.1.15,2013-10-02 16:35:00,
2013-10-02 11:40:00,76.2,44.2,30.04,ESE,103,4.0,4.0,32,0.00,,,0.00,Wunderground v.1.15,2013-10-02 16:40:00,
2013-10-02 11:45:00,76.2,43.3,30.05,East,82,3.0,6.0,31,0.00,,,0.00,Wunderground v.1.15,2013-10-02 16:45:00,
2013-10-02 11:50:00,76.1,43.3,30.04,ESE,115,2.0,2.0,31,0.00,,,0.00,Wunderground v.1.15,2013-10-02 16:50:00,
2013-10-02 11:55:00,76.1,44.9,30.04,East,96,2.0,2.0,33,0.00,,,0.00,Wunderground v.1.15,2013-10-02 16:55:00,
2013-10-02 12:00:00,76.6,47.6,30.04,East,95,2.0,5.0,36,0.00,,,0.00,Wunderground v.1.15,2013-10-02 17:00:00,
2013-10-02 12:05:00,77.0,44.0,30.04,East,89,3.0,5.0,31,0.00,,,0.00,Wunderground v.1.15,2013-10-02 17:05:00,
2013-10-02 12:10:00,77.5,43.6,30.04,East,86,4.0,4.0,30,0.00,,,0.00,Wunderground v.1.15,2013-10-02 17:10:00,
2013-10-02 12:15:00,77.6,43.7,30.04,ENE,67,3.0,8.0,30,0.00,,,0.00,Wunderground v.1.15,2013-10-02 17:15:00,
2013-10-02 12:20:00,77.5,43.6,30.04,East,101,3.0,3.0,30,0.00,,,0.00,Wunderground v.1.15,2013-10-02 17:20:00,
2013-10-02 12:25:00,77.6,42.8,30.03,NE,45,4.0,4.0,29,0.00,,,0.00,Wunderground v.1.15,2013-10-02 17:25:00,
2013-10-02 12:30:00,77.8,43.0,30.03,ESE,105,3.0,8.0,29,0.00,,,0.00,Wunderground v.1.15,2013-10-02 17:30:00,
2013-10-02 12:35:00,77.9,43.1,30.03,ESE,107,3.0,8.0,29,0.00,,,0.00,Wunderground v.1.15,2013-10-02 17:35:00,
2013-10-02 12:40:00,78.0,44.9,30.03,East,88,4.0,4.0,31,0.00,,,0.00,Wunderground v.1.15,2013-10-02 17:40:00,
2013-10-02 12:45:00,78.5,44.5,30.03,SE,127,3.0,4.0,30,0.00,,,0.00,Wunderground v.1.15,2013-10-02 17:45:00,
2013-10-02 12:50:00,78.6,45.4,30.03,South,176,2.0,2.0,31,0.00,,,0.00,Wunderground v.1.15,2013-10-02 17:50:00,
2013-10-02 12:55:00,78.7,43.8,30.02,ENE,69,3.0,5.0,29,0.00,,,0.00,Wunderground v.1.15,2013-10-02 17:55:00,
2013-10-02 13:00:00,79.1,44.1,30.02,East,87,4.0,4.0,29,0.00,,,0.00,Wunderground v.1.15,2013-10-02 18:00:00,
2013-10-02 13:05:00,79.3,44.3,30.02,ENE,76,3.0,4.0,29,0.00,,,0.00,Wunderground v.1.15,2013-10-02 18:05:00,
2013-10-02 13:10:00,79.4,44.4,30.02,SE,126,1.0,1.0,29,0.00,,,0.00,Wunderground v.1.15,2013-10-02 18:10:00,
2013-10-02 13:15:00,79.7,46.4,30.02,East,81,1.0,6.0,31,0.00,,,0.00,Wunderground v.1.15,2013-10-02 18:15:00,
2013-10-02 13:20:00,79.9,45.7,30.01,ENE,67,2.0,7.0,30,0.00,,,0.00,Wunderground v.1.15,2013-10-02 18:20:00,
2013-10-02 13:30:00,80.1,47.6,30.00,ENE,71,3.0,3.0,32,0.00,,,0.00,Wunderground v.1.15,2013-10-02 18:30:00,
2013-10-02 13:35:00,80.2,45.1,30.00,East,84,2.0,3.0,29,0.00,,,0.00,Wunderground v.1.15,2013-10-02 18:35:00,
2013-10-02 13:40:00,80.1,45.0,30.00,ENE,77,2.0,2.0,29,0.00,,,0.00,Wunderground v.1.15,2013-10-02 18:40:00,
2013-10-02 13:45:00,79.9,45.7,30.00,NE,42,2.0,2.0,30,0.00,,,0.00,Wunderground v.1.15,2013-10-02 18:45:00,
2013-10-02 13:55:00,80.5,46.2,30.00,East,84,3.0,6.0,30,0.00,,,0.00,Wunderground v.1.15,2013-10-02 18:55:00,
2013-10-02 14:00:00,80.8,49.0,29.99,ESE,121,3.0,3.0,33,0.00,,,0.00,Wunderground v.1.15,2013-10-02 19:00:00,
2013-10-02 14:05:00,80.9,47.4,29.99,East,86,3.0,3.0,31,0.00,,,0.00,Wunderground v.1.15,2013-10-02 19:05:00,
2013-10-02 14:10:00,80.9,46.6,29.99,East,89,3.0,3.0,30,0.00,,,0.00,Wunderground v.1.15,2013-10-02 19:10:00,
2013-10-02 14:15:00,81.2,46.8,29.99,ENE,74,2.0,3.0,30,0.00,,,0.00,Wunderground v.1.15,2013-10-02 19:15:00,
2013-10-02 14:20:00,81.6,46.3,29.99,East,90,2.0,2.0,29,0.00,,,0.00,Wunderground v.1.15,2013-10-02 19:20:00,
2013-10-02 14:25:00,81.6,48.0,29.98,South,180,3.0,3.0,31,0.00,,,0.00,Wunderground v.1.15,2013-10-02 19:25:00,
2013-10-02 14:30:00,81.7,47.2,29.98,East,98,2.0,2.0,30,0.00,,,0.00,Wunderground v.1.15,2013-10-02 19:30:00,
2013-10-02 14:35:00,81.9,48.3,29.98,ENE,63,2.0,3.0,31,0.00,,,0.00,Wunderground v.1.15,2013-10-02 19:35:00,
2013-10-02 14:40:00,82.3,47.8,29.98,ENE,66,3.0,3.0,30,0.00,,,0.00,Wunderground v.1.15,2013-10-02 19:40:00,
2013-10-02 14:45:00,82.5,47.9,29.98,East,85,2.0,6.0,30,0.00,,,0.00,Wunderground v.1.15,2013-10-02 19:45:00,
2013-10-02 14:50:00,82.3,48.6,29.98,East,80,3.0,3.0,31,0.00,,,0.00,Wunderground v.1.15,2013-10-02 19:50:00,
2013-10-02 14:55:00,81.9,47.4,29.98,ESE,117,3.0,3.0,30,0.00,,,0.00,Wunderground v.1.15,2013-10-02 19:55:00,
2013-10-02 15:00:00,81.8,47.3,29.98,ESE,119,3.0,5.0,30,0.00,,,0.00,Wunderground v.1.15,2013-10-02 20:00:00,
2013-10-02 15:05:00,82.0,47.5,29.98,East,98,4.0,5.0,30,0.00,,,0.00,Wunderground v.1.15,2013-10-02 20:05:00,
2013-10-02 15:10:00,82.1,47.6,29.98,ESE,110,3.0,4.0,30,0.00,,,0.00,Wunderground v.1.15,2013-10-02 20:10:00,
2013-10-02 15:20:00,82.3,47.8,29.97,SE,130,3.0,4.0,30,0.00,,,0.00,Wunderground v.1.15,2013-10-02 20:20:00,
2013-10-02 15:25:00,81.6,47.2,29.97,SE,127,2.0,4.0,30,0.00,,,0.00,Wunderground v.1.15,2013-10-02 20:25:00,
2013-10-02 15:30:00,81.3,48.6,29.97,ESE,117,2.0,2.0,32,0.00,,,0.00,Wunderground v.1.15,2013-10-02 20:30:00,
2013-10-02 15:35:00,80.9,47.4,29.97,ESE,113,2.0,2.0,31,0.00,,,0.00,Wunderground v.1.15,2013-10-02 20:35:00,
2013-10-02 15:40:00,80.7,48.1,29.97,SE,129,2.0,2.0,32,0.00,,,0.00,Wunderground v.1.15,2013-10-02 20:40:00,
2013-10-02 15:45:00,80.3,47.7,29.97,East,90,2.0,2.0,32,0.00,,,0.00,Wunderground v.1.15,2013-10-02 20:45:00,
2013-10-02 15:50:00,79.9,47.4,29.96,SE,126,2.0,5.0,32,0.00,,,0.00,Wunderground v.1.15,2013-10-02 20:50:00,
2013-10-02 15:55:00,79.5,47.9,29.96,ESE,102,2.0,5.0,33,0.00,,,0.00,Wunderground v.1.15,2013-10-02 20:55:00,
2013-10-02 16:00:00,79.2,48.4,29.96,ESE,117,2.0,2.0,34,0.00,,,0.00,Wunderground v.1.15,2013-10-02 21:00:00,
2013-10-02 16:10:00,78.9,48.9,29.96,East,98,2.0,3.0,35,0.00,,,0.00,Wunderground v.1.15,2013-10-02 21:10:00,
2013-10-02 16:15:00,78.8,48.8,29.96,East,88,3.0,3.0,35,0.00,,,0.00,Wunderground v.1.15,2013-10-02 21:15:00,
2013-10-02 16:25:00,78.6,49.4,29.95,East,93,2.0,6.0,36,0.00,,,0.00,Wunderground v.1.15,2013-10-02 21:25:00,
2013-10-02 16:35:00,78.4,49.2,29.95,ESE,108,4.0,4.0,36,0.00,,,0.00,Wunderground v.1.15,2013-10-02 21:35:00,
2013-10-02 16:40:00,78.3,49.1,29.95,East,100,3.0,7.0,36,0.00,,,0.00,Wunderground v.1.15,2013-10-02 21:40:00,
2013-10-02 16:45:00,78.2,49.8,29.95,East,94,3.0,7.0,37,0.00,,,0.00,Wunderground v.1.15,2013-10-02 21:45:00,
2013-10-02 16:50:00,78.0,50.3,29.95,East,96,3.0,7.0,38,0.00,,,0.00,Wunderground v.1.15,2013-10-02 21:50:00,
2013-10-02 16:55:00,77.8,50.2,29.95,East,88,3.0,7.0,38,0.00,,,0.00,Wunderground v.1.15,2013-10-02 21:55:00,
2013-10-02 17:00:00,77.7,50.8,29.95,ESE,112,4.0,4.0,39,0.00,,,0.00,Wunderground v.1.15,2013-10-02 22:00:00,
2013-10-02 17:05:00,77.6,50.7,29.95,East,96,3.0,4.0,39,0.00,,,0.00,Wunderground v.1.15,2013-10-02 22:05:00,
2013-10-02 17:10:00,77.4,51.2,29.95,East,87,3.0,5.0,40,0.00,,,0.00,Wunderground v.1.15,2013-10-02 22:10:00,
2013-10-02 17:15:00,77.2,51.0,29.95,ESE,103,4.0,5.0,40,0.00,,,0.00,Wunderground v.1.15,2013-10-02 22:15:00,
2013-10-02 17:20:00,77.0,50.8,29.95,ESE,105,4.0,4.0,40,0.00,,,0.00,Wunderground v.1.15,2013-10-02 22:20:00,
2013-10-02 17:25:00,76.8,51.3,29.95,East,94,4.0,4.0,41,0.00,,,0.00,Wunderground v.1.15,2013-10-02 22:25:00,
2013-10-02 17:35:00,76.2,52.1,29.95,ENE,75,3.0,5.0,43,0.00,,,0.00,Wunderground v.1.15,2013-10-02 22:35:00,
2013-10-02 17:40:00,75.9,52.4,29.95,East,96,3.0,3.0,44,0.00,,,0.00,Wunderground v.1.15,2013-10-02 22:40:00,
2013-10-02 17:45:00,75.4,52.0,29.95,East,91,3.0,3.0,44,0.00,,,0.00,Wunderground v.1.15,2013-10-02 22:45:00,
2013-10-02 17:50:00,74.9,52.1,29.95,East,94,3.0,3.0,45,0.00,,,0.00,Wunderground v.1.15,2013-10-02 22:50:00,
2013-10-02 17:55:00,74.7,52.5,29.94,East,90,2.0,3.0,46,0.00,,,0.00,Wunderground v.1.15,2013-10-02 22:55:00,
2013-10-02 18:00:00,74.3,52.8,29.94,East,91,2.0,2.0,47,0.00,,,0.00,Wunderground v.1.15,2013-10-02 23:00:00,
2013-10-02 18:05:00,74.0,52.5,29.94,East,97,2.0,2.0,47,0.00,,,0.00,Wunderground v.1.15,2013-10-02 23:05:00,
2013-10-02 18:10:00,73.6,52.7,29.94,East,80,3.0,3.0,48,0.00,,,0.00,Wunderground v.1.15,2013-10-02 23:10:00,
2013-10-02 18:15:00,73.2,52.9,29.94,ESE,103,3.0,3.0,49,0.00,,,0.00,Wunderground v.1.15,2013-10-02 23:15:00,
2013-10-02 18:20:00,72.8,53.1,29.94,East,95,2.0,2.0,50,0.00,,,0.00,Wunderground v.1.15,2013-10-02 23:20:00,
2013-10-02 18:25:00,72.4,52.7,29.94,East,95,2.0,2.0,50,0.00,,,0.00,Wunderground v.1.15,2013-10-02 23:25:00,
2013-10-02 18:30:00,71.9,52.8,29.94,ESE,110,2.0,2.0,51,0.00,,,0.00,Wunderground v.1.15,2013-10-02 23:30:00,
2013-10-02 18:40:00,70.9,52.4,29.94,ENE,78,2.0,2.0,52,0.00,,,0.00,Wunderground v.1.15,2013-10-02 23:40:00,
2013-10-02 18:45:00,70.6,52.6,29.95,East,79,2.0,2.0,53,0.00,,,0.00,Wunderground v.1.15,2013-10-02 23:45:00,
2013-10-02 18:50:00,70.1,52.2,29.95,ENE,67,2.0,4.0,53,0.00,,,0.00,Wunderground v.1.15,2013-10-02 23:50:00,
2013-10-02 18:55:00,69.6,52.2,29.95,East,83,2.0,4.0,54,0.00,,,0.00,Wunderground v.1.15,2013-10-02 23:55:00,
2013-10-02 19:00:00,69.2,52.3,29.95,East,96,2.0,2.0,55,0.00,,,0.00,Wunderground v.1.15,2013-10-03 00:00:00,
2013-10-02 19:05:00,68.9,52.1,29.95,East,86,2.0,3.0,55,0.00,,,0.00,Wunderground v.1.15,2013-10-03 00:05:00,
2013-10-02 19:10:00,68.6,52.3,29.95,East,90,2.0,5.0,56,0.00,,,0.00,Wunderground v.1.15,2013-10-03 00:10:00,
2013-10-02 19:15:00,68.2,51.9,29.95,East,92,3.0,5.0,56,0.00,,,0.00,Wunderground v.1.15,2013-10-03 00:15:00,
2013-10-02 19:20:00,67.9,52.1,29.95,East,85,3.0,5.0,57,0.00,,,0.00,Wunderground v.1.15,2013-10-03 00:20:00,
2013-10-02 19:25:00,67.5,52.2,29.95,ESE,102,3.0,5.0,58,0.00,,,0.00,Wunderground v.1.15,2013-10-03 00:25:00,
2013-10-02 19:30:00,67.2,51.9,29.95,ESE,106,3.0,3.0,58,0.00,,,0.00,Wunderground v.1.15,2013-10-03 00:30:00,
2013-10-02 19:35:00,66.8,51.5,29.95,East,90,3.0,3.0,58,0.00,,,0.00,Wunderground v.1.15,2013-10-03 00:35:00,
2013-10-02 19:40:00,66.5,51.3,29.95,East,80,4.0,4.0,58,0.00,,,0.00,Wunderground v.1.15,2013-10-03 00:40:00,
2013-10-02 19:45:00,66.1,50.9,29.95,ESE,117,4.0,4.0,58,0.00,,,0.00,Wunderground v.1.15,2013-10-03 00:45:00,
2013-10-02 19:50:00,65.8,50.6,29.95,ESE,105,3.0,3.0,58,0.00,,,0.00,Wunderground v.1.15,2013-10-03 00:50:00,
2013-10-02 19:55:00,65.5,50.8,29.95,East,92,4.0,4.0,59,0.00,,,0.00,Wunderground v.1.15,2013-10-03 00:55:00,
2013-10-02 20:00:00,65.2,50.5,29.95,East,84,4.0,6.0,59,0.00,,,0.00,Wunderground v.1.15,2013-10-03 01:00:00,
2013-10-02 20:05:00,64.9,50.2,29.95,East,90,3.0,6.0,59,0.00,,,0.00,Wunderground v.1.15,2013-10-03 01:05:00,
2013-10-02 20:10:00,64.6,49.9,29.95,East,92,3.0,3.0,59,0.00,,,0.00,Wunderground v.1.15,2013-10-03 01:10:00,
2013-10-02 20:15:00,64.4,49.8,29.95,East,95,3.0,6.0,59,0.00,,,0.00,Wunderground v.1.15,2013-10-03 01:15:00,
2013-10-02 20:20:00,64.2,50.0,29.95,ESE,103,3.0,3.0,60,0.00,,,0.00,Wunderground v.1.15,2013-10-03 01:20:00,
2013-10-02 20:25:00,63.9,49.7,29.95,East,89,3.0,3.0,60,0.00,,,0.00,Wunderground v.1.15,2013-10-03 01:25:00,
2013-10-02 20:30:00,63.7,49.5,29.95,ESE,103,2.0,3.0,60,0.00,,,0.00,Wunderground v.1.15,2013-10-03 01:30:00,
2013-10-02 20:35:00,63.4,49.3,29.95,East,97,2.0,8.0,60,0.00,,,0.00,Wunderground v.1.15,2013-10-03 01:35:00,
2013-10-02 20:40:00,63.2,49.5,29.95,East,88,2.0,8.0,61,0.00,,,0.00,Wunderground v.1.15,2013-10-03 01:40:00,
2013-10-02 20:45:00,63.1,49.4,29.95,East,95,2.0,8.0,61,0.00,,,0.00,Wunderground v.1.15,2013-10-03 01:45:00,
2013-10-02 20:50:00,62.9,49.2,29.95,East,95,2.0,8.0,61,0.00,,,0.00,Wunderground v.1.15,2013-10-03 01:50:00,
2013-10-02 20:55:00,62.7,49.1,29.95,East,94,2.0,8.0,61,0.00,,,0.00,Wunderground v.1.15,2013-10-03 01:55:00,
2013-10-02 21:00:00,62.6,49.0,29.95,East,101,2.0,2.0,61,0.00,,,0.00,Wunderground v.1.15,2013-10-03 02:00:00,
2013-10-02 21:05:00,62.5,48.9,29.95,East,101,1.0,2.0,61,0.00,,,0.00,Wunderground v.1.15,2013-10-03 02:05:00,
2013-10-02 21:10:00,62.3,48.7,29.95,ESE,108,1.0,3.0,61,0.00,,,0.00,Wunderground v.1.15,2013-10-03 02:10:00,
2013-10-02 21:20:00,62.1,48.0,29.95,East,92,2.0,2.0,60,0.00,,,0.00,Wunderground v.1.15,2013-10-03 02:20:00,
2013-10-02 21:30:00,61.9,47.9,29.95,ESE,103,2.0,2.0,60,0.00,,,0.00,Wunderground v.1.15,2013-10-03 02:30:00,
2013-10-02 21:35:00,61.8,48.2,29.95,East,94,2.0,7.0,61,0.00,,,0.00,Wunderground v.1.15,2013-10-03 02:35:00,
2013-10-02 21:40:00,61.7,48.1,29.95,East,88,2.0,7.0,61,0.00,,,0.00,Wunderground v.1.15,2013-10-03 02:40:00,
2013-10-02 21:45:00,61.6,48.0,29.95,East,79,2.0,7.0,61,0.00,,,0.00,Wunderground v.1.15,2013-10-03 02:45:00,
2013-10-02 21:50:00,61.4,48.3,29.95,East,82,2.0,2.0,62,0.00,,,0.00,Wunderground v.1.15,2013-10-03 02:50:00,
2013-10-02 21:55:00,61.3,48.2,29.95,East,82,1.0,7.0,62,0.00,,,0.00,Wunderground v.1.15,2013-10-03 02:55:00,
2013-10-02 22:00:00,61.1,48.0,29.95,East,96,1.0,2.0,62,0.00,,,0.00,Wunderground v.1.15,2013-10-03 03:00:00,
2013-10-02 22:05:00,61.0,47.9,29.95,East,80,1.0,2.0,62,0.00,,,0.00,Wunderground v.1.15,2013-10-03 03:05:00,
2013-10-02 22:10:00,60.9,48.2,29.95,ENE,61,1.0,1.0,63,0.00,,,0.00,Wunderground v.1.15,2013-10-03 03:10:00,
2013-10-02 22:15:00,60.8,48.1,29.95,East,90,1.0,2.0,63,0.00,,,0.00,Wunderground v.1.15,2013-10-03 03:15:00,
2013-10-02 22:25:00,60.7,48.0,29.95,East,84,2.0,3.0,63,0.00,,,0.00,Wunderground v.1.15,2013-10-03 03:25:00,
2013-10-02 22:30:00,60.7,48.0,29.95,East,86,2.0,2.0,63,0.00,,,0.00,Wunderground v.1.15,2013-10-03 03:30:00,
2013-10-02 22:35:00,60.7,48.0,29.95,East,94,2.0,3.0,63,0.00,,,0.00,Wunderground v.1.15,2013-10-03 03:35:00,
2013-10-02 22:45:00,60.8,48.5,29.95,ESE,115,2.0,3.0,64,0.00,,,0.00,Wunderground v.1.15,2013-10-03 03:45:00,
2013-10-02 22:50:00,60.8,48.5,29.95,East,92,2.0,2.0,64,0.00,,,0.00,Wunderground v.1.15,2013-10-03 03:50:00,
2013-10-02 22:55:00,60.8,48.5,29.96,ESE,111,2.0,2.0,64,0.00,,,0.00,Wunderground v.1.15,2013-10-03 03:55:00,
2013-10-02 23:00:00,60.8,49.0,29.96,East,94,1.0,1.0,65,0.00,,,0.00,Wunderground v.1.15,2013-10-03 04:00:00,
2013-10-02 23:05:00,60.9,49.1,29.95,East,99,1.0,1.0,65,0.00,,,0.00,Wunderground v.1.15,2013-10-03 04:05:00,
2013-10-02 23:10:00,60.8,49.4,29.95,East,84,2.0,3.0,66,0.00,,,0.00,Wunderground v.1.15,2013-10-03 04:10:00,
2013-10-02 23:15:00,60.8,49.8,29.95,East,94,3.0,3.0,67,0.00,,,0.00,Wunderground v.1.15,2013-10-03 04:15:00,
2013-10-02 23:20:00,60.8,50.2,29.95,East,96,3.0,3.0,68,0.00,,,0.00,Wunderground v.1.15,2013-10-03 04:20:00,
2013-10-02 23:25:00,60.7,50.1,29.95,East,88,3.0,5.0,68,0.00,,,0.00,Wunderground v.1.15,2013-10-03 04:25:00,
2013-10-02 23:35:00,60.6,50.8,29.94,East,96,3.0,3.0,70,0.00,,,0.00,Wunderground v.1.15,2013-10-03 04:35:00,
2013-10-02 23:40:00,60.4,50.6,29.94,East,93,2.0,2.0,70,0.00,,,0.00,Wunderground v.1.15,2013-10-03 04:40:00,
2013-10-02 23:45:00,60.3,50.9,29.95,East,88,2.0,2.0,71,0.00,,,0.00,Wunderground v.1.15,2013-10-03 04:45:00,
2013-10-02 23:50:00,60.2,51.1,29.94,East,88,1.0,1.0,72,0.00,,,0.00,Wunderground v.1.15,2013-10-03 04:50:00,
2013-10-02 23:55:00,60.0,51.3,29.94,East,88,1.0,2.0,73,0.00,,,0.00,Wunderground v.1.15,2013-10-03 04:55:00,